Location: Kellogg
(38.0159°N, 90.0546°W)
Time: 12:43:16
(UTC+00:00)

ACS3 Solar Sail - Pass Details

Date: 16 August 2024
Orbit: 973 x 1034 km, 97.4° (Epoch: 16 September)

Event Time Altitude Azimuth Distance (km) Brightness Sun altitude
Exits shadow 02:20:24 22° 143° (SE) 2,027 2.9 -16.4°
Maximum altitude 02:24:24 57° 73° (ENE) 1,182 2.0 -17.1°
Drops below altitude 10° 02:30:37 10° 357° (N) 2,825 4.7 -18.1°
Sets 02:33:11 0° 354° (N) 3,790 5.5 -18.5°
